Regional Weather Roundup
Issued by NWS Spokane, WA

Home | Current Version | Previous Version | Text Only | Print | Product List | Glossary On
Versions: 1 2 3 4 5 6 7 8 9 10 11 12 13 14 15 16 17 18 19 20 21 22 23 24 25 26 27 28 29 30 31 32 33 34 35 36 37 38 39 40 41 42 43 44 45 46 47 48 49 50
204
NZUS01 KOTX 210525
RWROTX

Eastern Washington/Northern Idaho Roundup
National Weather Service, Spokane WA
900 PM PST MON FEB 20 2017

Note: "fair" indicated few or no clouds below 12,000 feet with no
significant weather and/or obstructions to visibility.

...Northeast Washington and Northern Idaho Panhandle...

CITY           SKY/WX    TMP DP  RH WIND       PRES   REMARKS
Spokane Intl   CLOUDY    35  33  92 SE3       29.71R
Spokane Downto CLOUDY    37  35  92 CALM      29.73R
Coeur d Alene  CLOUDY    36  33  89 W8        29.72R
Deer Park      MOCLDY    33  31  92 SE9       29.71R WCI  25
Sandpoint      CLOUDY    36  34  93 SW6       29.71R
Bonners Ferry  CLOUDY    36  32  87 SW8       29.65R

...Southeast Washington and southern Idaho Panhandle...

CITY           SKY/WX    TMP DP  RH WIND       PRES   REMARKS
Walla Walla    CLOUDY    46  38  73 SE6       29.71F
Pullman/Moscow MOCLDY    37  32  82 NE5       29.73R
Lewiston       CLOUDY    49  33  54 CALM      29.71S
Lowell           N/A     36  33  89 CALM      29.77R
Grangeville    CLOUDY    41  36  81 SE10      29.72S

...Columbia Basin...

CITY           SKY/WX    TMP DP  RH WIND       PRES   REMARKS
Ephrata        MOCLDY    30  26  85 N8        29.69S FOG     WCI  22
Moses Lake     MOCLDY    31  29  92 MISG      29.71S
Pasco          CLOUDY    43  35  73 CALM      29.72S
Richland       CLOUDY    41  37  85 N6        29.73S
Hermiston      LGT RAIN  43  38  82 SE7       29.71R
Pendleton      CLOUDY    40  37  89 S6        29.71R

...East Slopes Cascades...

CITY           SKY/WX    TMP DP  RH WIND       PRES   REMARKS
The Dalles     CLOUDY    41  37  86 E7        29.71R
Yakima         CLOUDY    35  32  88 W5        29.71S
Ellensburg     MOCLDY    32  28  85 N7        29.68S WCI  26
Stampede Pass  LGT SNOW  30  32 100 CALM      29.63S
Wenatchee      MOCLDY    31  30  96 N6        29.71R WCI  25
Omak           CLOUDY    35  31  85 SW3       29.73R
Sunnyside        N/A     34  32  92 CALM      29.71R

...Southern British Columbia...

CITY           SKY/WX    TMP DP  RH WIND       PRES   REMARKS
Penticton      PTCLDY    32  32 100 SE3       29.68R
Cranbrook      LGT SNOW  32  32 100 S3        29.59R
Osoyoos          N/A     39  36  87 SE7         N/A
Creston          N/A     32  32 100 CALM        N/A

...Western Montana...

CITY           SKY/WX    TMP DP  RH WIND       PRES   REMARKS
Kalispell      CLOUDY    37  33  85 S8        29.63R
Libby            N/A     39  34  81 SE9       29.63R
Missoula       LGT RAIN  34  34 100 CALM      29.74S FOG

...Neighboring Cities...

CITY           SKY/WX    TMP DP  RH WIND       PRES   REMARKS
Seattle        MOCLDY    44  42  93 SE7       29.71F
Portland       CLOUDY    44  43  96 SE7       29.70S
Boise          CLOUDY    49  39  68 S16       29.78S
Great Falls    CLEAR     41  31  67 W17       29.62S
Calgary        CLOUDY    28  27  93 N6        29.55R FOG     WCI  22



USA.gov is the U.S. government's official web portal to all federal, state and local government web resources and services.